Time,TemperatureF,DewpointF,PressureIn,WindDirection,WindDirectionDegrees,WindSpeedMPH,WindSpeedGustMPH,Humidity,HourlyPrecipIn,Conditions,Clouds,dailyrainin,SoftwareType,DateUTC
2013-01-25 00:00:00,13.0,-99.9,-100.00,South,190,8.0,11.0,-999,-99.99,,,-99.99,,2013-01-25 05:00:00,
2013-01-25 00:22:00,13.0,-99.9,-100.00,South,190,8.0,11.0,-999,-99.99,,,-99.99,,2013-01-25 05:22:00,
2013-01-25 00:32:00,13.0,-99.9,-100.00,South,190,8.0,11.0,-999,-99.99,,,-99.99,,2013-01-25 05:32:00,
2013-01-25 00:43:00,13.0,-99.9,-100.00,South,190,8.0,11.0,-999,-99.99,,,-99.99,,2013-01-25 05:43:00,
2013-01-25 00:52:00,13.0,-99.9,-100.00,South,190,8.0,11.0,-999,-99.99,,,-99.99,,2013-01-25 05:52:00,
2013-01-25 01:00:00,13.0,-99.9,-100.00,South,190,8.0,10.0,-999,-99.99,,,-99.99,,2013-01-25 06:00:00,
2013-01-25 01:12:00,13.0,-99.9,-100.00,South,190,8.0,13.0,-999,-99.99,,,-99.99,,2013-01-25 06:12:00,
2013-01-25 01:22:00,13.0,-99.9,-100.00,South,190,8.0,10.0,-999,-99.99,,,-99.99,,2013-01-25 06:22:00,
2013-01-25 01:32:00,13.0,-99.9,-100.00,South,190,8.0,10.0,-999,-99.99,,,-99.99,,2013-01-25 06:32:00,
2013-01-25 01:42:00,13.0,-99.9,-100.00,South,190,8.0,10.0,-999,-99.99,,,-99.99,,2013-01-25 06:42:00,
2013-01-25 01:52:00,13.0,-99.9,-100.00,South,190,8.0,10.0,-999,-99.99,,,-99.99,,2013-01-25 06:52:00,
2013-01-25 02:00:00,13.0,-99.9,-100.00,South,180,7.0,8.0,-999,-99.99,,,-99.99,,2013-01-25 07:00:00,
2013-01-25 02:11:00,13.0,-99.9,-100.00,South,180,7.0,10.0,-999,-99.99,,,-99.99,,2013-01-25 07:11:00,
2013-01-25 02:22:00,13.0,-99.9,-100.00,South,180,7.0,8.0,-999,-99.99,,,-99.99,,2013-01-25 07:22:00,
2013-01-25 02:32:00,13.0,-99.9,-100.00,South,180,7.0,8.0,-999,-99.99,,,-99.99,,2013-01-25 07:32:00,
2013-01-25 02:42:00,13.0,-99.9,-100.00,South,180,7.0,8.0,-999,-99.99,,,-99.99,,2013-01-25 07:42:00,
2013-01-25 02:52:00,13.0,-99.9,-100.00,South,180,7.0,8.0,-999,-99.99,,,-99.99,,2013-01-25 07:52:00,
2013-01-25 03:00:00,12.0,-99.9,-100.00,South,170,8.0,9.0,-999,-99.99,,,-99.99,,2013-01-25 08:00:00,
2013-01-25 03:12:00,13.0,-99.9,-100.00,South,180,8.0,10.0,-999,-99.99,,,-99.99,,2013-01-25 08:12:00,
2013-01-25 03:22:00,12.0,-99.9,-100.00,South,170,8.0,9.0,-999,-99.99,,,-99.99,,2013-01-25 08:22:00,
2013-01-25 03:32:00,12.0,-99.9,-100.00,South,170,8.0,9.0,-999,-99.99,,,-99.99,,2013-01-25 08:32:00,
2013-01-25 03:42:00,12.0,-99.9,-100.00,South,170,8.0,9.0,-999,-99.99,,,-99.99,,2013-01-25 08:42:00,
2013-01-25 03:52:00,12.0,-99.9,-100.00,South,170,8.0,9.0,-999,-99.99,,,-99.99,,2013-01-25 08:52:00,
2013-01-25 04:00:00,12.0,-99.9,-100.00,South,170,10.0,13.0,-999,-99.99,,,-99.99,,2013-01-25 09:00:00,
2013-01-25 04:11:00,12.0,-99.9,-100.00,South,170,9.0,13.0,-999,-99.99,,,-99.99,,2013-01-25 09:11:00,
2013-01-25 04:22:00,12.0,-99.9,-100.00,South,170,10.0,13.0,-999,-99.99,,,-99.99,,2013-01-25 09:22:00,
2013-01-25 04:32:00,12.0,-99.9,-100.00,South,170,10.0,13.0,-999,-99.99,,,-99.99,,2013-01-25 09:32:00,
2013-01-25 04:42:00,12.0,-99.9,-100.00,South,170,10.0,13.0,-999,-99.99,,,-99.99,,2013-01-25 09:42:00,
2013-01-25 04:52:00,12.0,-99.9,-100.00,South,170,10.0,13.0,-999,-99.99,,,-99.99,,2013-01-25 09:52:00,
2013-01-25 05:00:00,12.0,-99.9,-100.00,South,180,10.0,13.0,-999,-99.99,,,-99.99,,2013-01-25 10:00:00,
2013-01-25 05:12:00,12.0,-99.9,-100.00,South,180,10.0,13.0,-999,-99.99,,,-99.99,,2013-01-25 10:12:00,
2013-01-25 05:22:00,12.0,-99.9,-100.00,South,180,10.0,13.0,-999,-99.99,,,-99.99,,2013-01-25 10:22:00,
2013-01-25 05:32:00,12.0,-99.9,-100.00,South,180,10.0,13.0,-999,-99.99,,,-99.99,,2013-01-25 10:32:00,
2013-01-25 05:42:00,12.0,-99.9,-100.00,South,180,10.0,13.0,-999,-99.99,,,-99.99,,2013-01-25 10:42:00,
2013-01-25 05:52:00,12.0,-99.9,-100.00,South,180,10.0,13.0,-999,-99.99,,,-99.99,,2013-01-25 10:52:00,
2013-01-25 06:00:00,12.0,-99.9,-100.00,South,180,9.0,13.0,-999,-99.99,,,-99.99,,2013-01-25 11:00:00,
2013-01-25 06:22:00,12.0,-99.9,-100.00,South,180,9.0,13.0,-999,-99.99,,,-99.99,,2013-01-25 11:22:00,
2013-01-25 06:33:00,12.0,-99.9,-100.00,South,180,9.0,13.0,-999,-99.99,,,-99.99,,2013-01-25 11:33:00,
2013-01-25 06:42:00,12.0,-99.9,-100.00,South,180,9.0,13.0,-999,-99.99,,,-99.99,,2013-01-25 11:42:00,
2013-01-25 06:52:00,12.0,-99.9,-100.00,South,180,9.0,13.0,-999,-99.99,,,-99.99,,2013-01-25 11:52:00,
2013-01-25 07:00:00,13.0,-99.9,-100.00,SSE,160,9.0,13.0,-999,-99.99,,,-99.99,,2013-01-25 12:00:00,
2013-01-25 07:22:00,13.0,-99.9,-100.00,SSE,160,9.0,13.0,-999,-99.99,,,-99.99,,2013-01-25 12:22:00,
2013-01-25 07:33:00,13.0,-99.9,-100.00,SSE,160,9.0,13.0,-999,-99.99,,,-99.99,,2013-01-25 12:33:00,
2013-01-25 07:42:00,13.0,-99.9,-100.00,SSE,160,9.0,13.0,-999,-99.99,,,-99.99,,2013-01-25 12:42:00,
2013-01-25 07:53:00,13.0,-99.9,-100.00,SSE,160,9.0,13.0,-999,-99.99,,,-99.99,,2013-01-25 12:53:00,
2013-01-25 08:00:00,13.0,-99.9,-100.00,SSE,160,9.0,13.0,-999,-99.99,,,-99.99,,2013-01-25 13:00:00,
2013-01-25 08:22:00,13.0,-99.9,-100.00,SSE,160,9.0,13.0,-999,-99.99,,,-99.99,,2013-01-25 13:22:00,
2013-01-25 08:33:00,13.0,-99.9,-100.00,SSE,160,9.0,13.0,-999,-99.99,,,-99.99,,2013-01-25 13:33:00,
2013-01-25 08:43:00,13.0,-99.9,-100.00,SSE,160,9.0,13.0,-999,-99.99,,,-99.99,,2013-01-25 13:43:00,
2013-01-25 08:53:00,13.0,-99.9,-100.00,SSE,160,9.0,13.0,-999,-99.99,,,-99.99,,2013-01-25 13:53:00,
2013-01-25 09:00:00,13.0,-99.9,-100.00,SSE,160,11.0,15.0,-999,-99.99,,,-99.99,,2013-01-25 14:00:00,
2013-01-25 09:23:00,13.0,-99.9,-100.00,SSE,160,11.0,15.0,-999,-99.99,,,-99.99,,2013-01-25 14:23:00,
2013-01-25 09:33:00,13.0,-99.9,-100.00,SSE,160,11.0,15.0,-999,-99.99,,,-99.99,,2013-01-25 14:33:00,
2013-01-25 09:42:00,13.0,-99.9,-100.00,SSE,160,11.0,15.0,-999,-99.99,,,-99.99,,2013-01-25 14:42:00,
2013-01-25 09:53:00,13.0,-99.9,-100.00,SSE,160,11.0,15.0,-999,-99.99,,,-99.99,,2013-01-25 14:53:00,
2013-01-25 10:00:00,14.0,-99.9,-100.00,SSE,160,10.0,15.0,-999,-99.99,,,-99.99,,2013-01-25 15:00:00,
2013-01-25 10:23:00,14.0,-99.9,-100.00,SSE,160,10.0,15.0,-999,-99.99,,,-99.99,,2013-01-25 15:23:00,
2013-01-25 10:33:00,14.0,-99.9,-100.00,SSE,160,10.0,15.0,-999,-99.99,,,-99.99,,2013-01-25 15:33:00,
2013-01-25 10:43:00,14.0,-99.9,-100.00,SSE,160,10.0,15.0,-999,-99.99,,,-99.99,,2013-01-25 15:43:00,
2013-01-25 10:53:00,14.0,-99.9,-100.00,SSE,160,10.0,15.0,-999,-99.99,,,-99.99,,2013-01-25 15:53:00,
2013-01-25 11:00:00,15.0,-99.9,-100.00,South,170,13.0,15.0,-999,-99.99,,,-99.99,,2013-01-25 16:00:00,
2013-01-25 11:23:00,15.0,-99.9,-100.00,South,170,13.0,15.0,-999,-99.99,,,-99.99,,2013-01-25 16:23:00,
2013-01-25 11:33:00,15.0,-99.9,-100.00,South,170,13.0,15.0,-999,-99.99,,,-99.99,,2013-01-25 16:33:00,
2013-01-25 11:43:00,15.0,-99.9,-100.00,South,170,13.0,15.0,-999,-99.99,,,-99.99,,2013-01-25 16:43:00,
2013-01-25 11:53:00,15.0,-99.9,-100.00,South,170,13.0,15.0,-999,-99.99,,,-99.99,,2013-01-25 16:53:00,
2013-01-25 12:00:00,15.0,-99.9,-100.00,South,170,11.0,14.0,-999,-99.99,,,-99.99,,2013-01-25 17:00:00,
2013-01-25 12:23:00,15.0,-99.9,-100.00,South,170,11.0,14.0,-999,-99.99,,,-99.99,,2013-01-25 17:23:00,
2013-01-25 12:33:00,15.0,-99.9,-100.00,South,170,11.0,14.0,-999,-99.99,,,-99.99,,2013-01-25 17:33:00,
2013-01-25 12:43:00,15.0,-99.9,-100.00,South,170,11.0,14.0,-999,-99.99,,,-99.99,,2013-01-25 17:43:00,
2013-01-25 12:53:00,15.0,-99.9,-100.00,South,170,11.0,14.0,-999,-99.99,,,-99.99,,2013-01-25 17:53:00,
2013-01-25 13:00:00,15.0,-99.9,-100.00,SE,140,9.0,13.0,-999,-99.99,,,-99.99,,2013-01-25 18:00:00,
2013-01-25 13:24:00,15.0,-99.9,-100.00,SE,140,9.0,13.0,-999,-99.99,,,-99.99,,2013-01-25 18:24:00,
2013-01-25 13:33:00,15.0,-99.9,-100.00,SE,140,9.0,13.0,-999,-99.99,,,-99.99,,2013-01-25 18:33:00,
2013-01-25 13:43:00,15.0,-99.9,-100.00,SE,140,9.0,13.0,-999,-99.99,,,-99.99,,2013-01-25 18:43:00,
2013-01-25 13:53:00,15.0,-99.9,-100.00,SE,140,9.0,13.0,-999,-99.99,,,-99.99,,2013-01-25 18:53:00,
2013-01-25 14:00:00,15.0,-99.9,-100.00,SSE,160,9.0,11.0,-999,-99.99,,,-99.99,,2013-01-25 19:00:00,
2013-01-25 14:23:00,15.0,-99.9,-100.00,SSE,160,9.0,11.0,-999,-99.99,,,-99.99,,2013-01-25 19:23:00,
2013-01-25 14:33:00,15.0,-99.9,-100.00,SSE,160,9.0,11.0,-999,-99.99,,,-99.99,,2013-01-25 19:33:00,
2013-01-25 14:43:00,15.0,-99.9,-100.00,SSE,160,9.0,11.0,-999,-99.99,,,-99.99,,2013-01-25 19:43:00,
2013-01-25 14:53:00,15.0,-99.9,-100.00,SSE,160,9.0,11.0,-999,-99.99,,,-99.99,,2013-01-25 19:53:00,
2013-01-25 15:00:00,17.0,-99.9,-100.00,South,170,7.0,9.0,-999,-99.99,,,-99.99,,2013-01-25 20:00:00,
2013-01-25 15:23:00,17.0,-99.9,-100.00,South,170,7.0,9.0,-999,-99.99,,,-99.99,,2013-01-25 20:23:00,
2013-01-25 15:33:00,17.0,-99.9,-100.00,South,170,7.0,9.0,-999,-99.99,,,-99.99,,2013-01-25 20:33:00,
2013-01-25 15:43:00,17.0,-99.9,-100.00,South,170,7.0,9.0,-999,-99.99,,,-99.99,,2013-01-25 20:43:00,
2013-01-25 15:53:00,17.0,-99.9,-100.00,South,170,7.0,9.0,-999,-99.99,,,-99.99,,2013-01-25 20:53:00,
2013-01-25 16:00:00,17.0,-99.9,-100.00,SSE,160,7.0,10.0,-999,-99.99,,,-99.99,,2013-01-25 21:00:00,
2013-01-25 16:23:00,17.0,-99.9,-100.00,SSE,160,7.0,10.0,-999,-99.99,,,-99.99,,2013-01-25 21:23:00,
2013-01-25 16:33:00,17.0,-99.9,-100.00,SSE,160,7.0,10.0,-999,-99.99,,,-99.99,,2013-01-25 21:33:00,
2013-01-25 16:43:00,17.0,-99.9,-100.00,SSE,160,7.0,10.0,-999,-99.99,,,-99.99,,2013-01-25 21:43:00,
2013-01-25 16:52:00,17.0,-99.9,-100.00,SSE,160,7.0,10.0,-999,-99.99,,,-99.99,,2013-01-25 21:52:00,
2013-01-25 17:00:00,18.0,-99.9,-100.00,South,180,6.0,8.0,-999,-99.99,,,-99.99,,2013-01-25 22:00:00,
2013-01-25 17:23:00,18.0,-99.9,-100.00,South,180,6.0,8.0,-999,-99.99,,,-99.99,,2013-01-25 22:23:00,
2013-01-25 17:33:00,18.0,-99.9,-100.00,South,180,6.0,8.0,-999,-99.99,,,-99.99,,2013-01-25 22:33:00,
2013-01-25 17:42:00,18.0,-99.9,-100.00,South,180,6.0,8.0,-999,-99.99,,,-99.99,,2013-01-25 22:42:00,
2013-01-25 17:53:00,18.0,-99.9,-100.00,South,180,6.0,8.0,-999,-99.99,,,-99.99,,2013-01-25 22:53:00,
2013-01-25 18:00:00,18.0,-99.9,-100.00,South,170,5.0,7.0,-999,-99.99,,,-99.99,,2013-01-25 23:00:00,
2013-01-25 18:22:00,18.0,-99.9,-100.00,South,170,5.0,7.0,-999,-99.99,,,-99.99,,2013-01-25 23:22:00,
2013-01-25 18:32:00,18.0,-99.9,-100.00,South,170,5.0,7.0,-999,-99.99,,,-99.99,,2013-01-25 23:32:00,
2013-01-25 18:42:00,18.0,-99.9,-100.00,South,170,5.0,7.0,-999,-99.99,,,-99.99,,2013-01-25 23:42:00,
2013-01-25 18:53:00,18.0,-99.9,-100.00,South,170,5.0,7.0,-999,-99.99,,,-99.99,,2013-01-25 23:53:00,
2013-01-25 19:00:00,18.0,-99.9,-100.00,South,180,3.0,5.0,-999,-99.99,,,-99.99,,2013-01-26 00:00:00,
2013-01-25 19:22:00,18.0,-99.9,-100.00,South,180,3.0,6.0,-999,-99.99,,,-99.99,,2013-01-26 00:22:00,
2013-01-25 19:33:00,18.0,-99.9,-100.00,South,180,3.0,5.0,-999,-99.99,,,-99.99,,2013-01-26 00:33:00,
2013-01-25 19:42:00,18.0,-99.9,-100.00,South,180,3.0,5.0,-999,-99.99,,,-99.99,,2013-01-26 00:42:00,
2013-01-25 19:53:00,18.0,-99.9,-100.00,South,180,3.0,5.0,-999,-99.99,,,-99.99,,2013-01-26 00:53:00,
2013-01-25 20:00:00,17.0,-99.9,-100.00,South,190,3.0,5.0,-999,-99.99,,,-99.99,,2013-01-26 01:00:00,
2013-01-25 20:22:00,17.0,-99.9,-100.00,South,190,3.0,5.0,-999,-99.99,,,-99.99,,2013-01-26 01:22:00,
2013-01-25 20:32:00,17.0,-99.9,-100.00,South,190,3.0,5.0,-999,-99.99,,,-99.99,,2013-01-26 01:32:00,
2013-01-25 20:42:00,17.0,-99.9,-100.00,South,190,3.0,5.0,-999,-99.99,,,-99.99,,2013-01-26 01:42:00,
2013-01-25 20:52:00,17.0,-99.9,-100.00,South,190,3.0,5.0,-999,-99.99,,,-99.99,,2013-01-26 01:52:00,
2013-01-25 21:00:00,17.0,-99.9,-100.00,South,170,3.0,5.0,-999,-99.99,,,-99.99,,2013-01-26 02:00:00,
2013-01-25 21:22:00,17.0,-99.9,-100.00,South,170,3.0,5.0,-999,-99.99,,,-99.99,,2013-01-26 02:22:00,
2013-01-25 21:32:00,17.0,-99.9,-100.00,South,170,3.0,5.0,-999,-99.99,,,-99.99,,2013-01-26 02:32:00,
2013-01-25 21:42:00,17.0,-99.9,-100.00,South,170,3.0,5.0,-999,-99.99,,,-99.99,,2013-01-26 02:42:00,
2013-01-25 21:53:00,17.0,-99.9,-100.00,South,170,3.0,5.0,-999,-99.99,,,-99.99,,2013-01-26 02:53:00,
2013-01-25 22:00:00,17.0,-99.9,-100.00,SSW,200,5.0,8.0,-999,-99.99,,,-99.99,,2013-01-26 03:00:00,
2013-01-25 22:22:00,17.0,-99.9,-100.00,SSW,200,5.0,8.0,-999,-99.99,,,-99.99,,2013-01-26 03:22:00,
2013-01-25 22:32:00,17.0,-99.9,-100.00,SSW,200,5.0,8.0,-999,-99.99,,,-99.99,,2013-01-26 03:32:00,
2013-01-25 22:43:00,17.0,-99.9,-100.00,SSW,200,5.0,8.0,-999,-99.99,,,-99.99,,2013-01-26 03:43:00,
2013-01-25 22:52:00,17.0,-99.9,-100.00,SSW,200,5.0,8.0,-999,-99.99,,,-99.99,,2013-01-26 03:52:00,
2013-01-25 23:00:00,17.0,-99.9,-100.00,SSW,210,8.0,9.0,-999,-99.99,,,-99.99,,2013-01-26 04:00:00,
2013-01-25 23:12:00,17.0,-99.9,-100.00,SSW,210,7.0,10.0,-999,-99.99,,,-99.99,,2013-01-26 04:12:00,
2013-01-25 23:22:00,17.0,-99.9,-100.00,SSW,210,8.0,9.0,-999,-99.99,,,-99.99,,2013-01-26 04:22:00,
2013-01-25 23:32:00,17.0,-99.9,-100.00,SSW,210,8.0,9.0,-999,-99.99,,,-99.99,,2013-01-26 04:32:00,
2013-01-25 23:43:00,17.0,-99.9,-100.00,SSW,210,8.0,9.0,-999,-99.99,,,-99.99,,2013-01-26 04:43:00,
2013-01-25 23:52:00,17.0,-99.9,-100.00,SSW,210,8.0,9.0,-999,-99.99,,,-99.99,,2013-01-26 04:52:00,